• MPC Preparation (Info)

  • MPEC 2023-G59 : 2023 GS

    The following Minor Planet Electronic Circular may be linked-to from your own Web pages, but must not otherwise be redistributed electronically.

    A form allowing access to any MPEC is at the bottom of this page.


    Read MPEC 2023-G58 Read MPEC 2023-G60


    M.P.E.C. 2023-G59                                Issued 2023 April 11, 22:45 UT
    
         The Minor Planet Electronic Circulars contain information on unusual
             minor planets, routine data on comets and natural satellites,
             and occasional editorial announcements.  They are published
        on behalf of Division F of the International Astronomical Union by the
              Minor Planet Center, Smithsonian Astrophysical Observatory,
                              Cambridge, MA 02138, U.S.A.
    			  
                 Prepared using the Tamkin Foundation Computer Network
    
                                  MPC@CFA.HARVARD.EDU
                URL https://www.minorplanetcenter.net/    ISSN 1523-6714
    
                                     2023 GS                                 
    
    
    Observations:
         K23G00S* C2023 04 10.87778212 02 19.76 +19 26 03.3          20.2 RoEG059K88
         K23G00S  C2023 04 10.88017912 02 18.57 +19 26 23.7          20.3 RoEG059K88
         K23G00S KC2023 04 10.89472912 02 11.44 +19 28 24.8          20.4 RoEG059K88
         K23G00S KC2023 04 10.89742012 02 10.08 +19 28 48.0          20.2 RoEG059K88
         K23G00S KC2023 04 10.90011312 02 08.76 +19 29 09.0          20.6 RoEG059K88
         K23G00S KC2023 04 10.93168112 01 56.971+19 33 21.06         20.3 GVEG059J95
         K23G00S KC2023 04 10.93652312 01 54.550+19 34 01.74         19.7 GVEG059J95
         K23G00S KC2023 04 10.94090412 01 52.414+19 34 38.46         20.3 GVEG059J95
         K23G00S KC2023 04 10.94163612 01 48.19 +19 34 54.9          20.3 RoEG059K88
         K23G00S KC2023 04 10.94548112 01 46.28 +19 35 27.0          20.2 RoEG059K88
         K23G00S hC2023 04 10.95390612 01 42.99 +19 36 48.0          20.4 GVEG059L01
         K23G00S hC2023 04 10.95501712 01 42.43 +19 36 57.0          20.3 GVEG059L01
         K23G00S hC2023 04 10.95699212 01 41.45 +19 37 13.9          20.3 GVEG059L01
         K23G00S hC2023 04 10.95798012 01 40.95 +19 37 22.1          20.4 GVEG059L01
         K23G00S hC2023 04 10.95958112 01 40.15 +19 37 35.3          20.5 GVEG059L01
         K23G00S KC2023 04 11.03321512 01 06.422+19 47 36.53         19.4 GVEG059J95
         K23G00S KC2023 04 11.03952712 01 03.331+19 48 30.35         20.0 GVEG059J95
         K23G00S KC2023 04 11.04622412 01 13.63 +19 49 59.0                XEG059W62
         K23G00S KC2023 04 11.04762212 00 59.273+19 49 38.86         20.2 GVEG059J95
         K23G00S KC2023 04 11.06992612 01 01.60 +19 53 29.1          19.6 GXEG059W62
         K23G00S KC2023 04 11.09268 12 00 53.62 +19 56 48.6          20.1 RZEG059H36
         K23G00S KC2023 04 11.09310412 00 52.07 +19 56 53.3          20.4 VuEG059H21
         K23G00S KC2023 04 11.09365912 00 49.37 +19 56 59.6          19.9 GXEG059W62
         K23G00S KC2023 04 11.09589912 00 50.63 +19 57 18.3          20.4 VuEG059H21
         K23G00S KC2023 04 11.09869512 00 49.19 +19 57 43.2          20.5 VuEG059H21
         K23G00S KC2023 04 11.10149112 00 47.74 +19 58 08.1          20.4 VuEG059H21
         K23G00S KC2023 04 11.10438012 00 46.24 +19 58 34.1          20.6 VuEG059H21
         K23G00S KC2023 04 11.10528 12 00 47.15 +19 58 40.1          20.6 RZEG059H36
         K23G00S KC2023 04 11.11738412 00 36.92 +20 00 30.2          19.9 GXEG059W62
         K23G00S KC2023 04 11.11792 12 00 40.72 +20 00 33.8          19.9 RZEG059H36
         K23G00S KC2023 04 11.14101312 00 24.33 +20 03 59.7          19.6 GXEG059W62
         K23G00S mC2023 04 11.28994511 59 10.871+20 26 42.90         19.89GVEG059I52
         K23G00S mC2023 04 11.29134511 59 10.079+20 26 55.72         20.51GVEG059I52
         K23G00S mC2023 04 11.29274711 59 09.269+20 27 07.88         20.64GVEG059I52
         K23G00S mC2023 04 11.29311311 59 09.096+20 27 11.23         20.10GVEG059I52
         K23G00S  C2023 04 11.31831911 58 54.255+20 30 50.37         20.3 GVEG059H01
         K23G00S  C2023 04 11.32323111 58 51.516+20 31 34.41         20.2 GVEG059H01
         K23G00S  C2023 04 11.33153211 58 46.909+20 32 48.83         20.0 GVEG059H01
         K23G00S  C2023 04 11.33931911 58 42.599+20 33 58.59         20.0 GVEG059H01
         K23G00S KC2023 04 11.82103011 54 52.54 +21 51 23.1          19.8 GXEG059958
         K23G00S KC2023 04 11.82541111 54 49.88 +21 52 08.7          19.7 GXEG059958
         K23G00S KC2023 04 11.82971711 54 47.33 +21 52 55.1          19.8 GXEG059958
    
    Observer details:
    958 Observatoire de Dax.  Observers P. Dupouy, J. B. de Vanssay.  Measurer P.
        Dupouy.  0.43-m f/2.7 Reflector + CCD.
    H01 Magdalena Ridge Observatory, Socorro.  Observers W. H. Ryan, E. V. Ryan.
        Measurer W. H. Ryan.  2.4-m f/8.9 Ritchey-Chretien + CCD.
    H21 Astronomical Research Observatory, Westfield.  Observer R. Holmes.
        Measurers T. Linder, R. Holmes, L. Horn.  0.76-m f/3.0 astrograph + CCD.
    H36 Sandlot Observatory, Scranton.  Observer G. Hug.  0.56-m f/4.8 .56 meter
        reflector + CCD.
    I52 Steward Observatory, Mt. Lemmon Station.  Observer D. Rankin.  Measurers
        E. J. Christensen, D. Fay, J. B. Fazekas, D. C. Fuls, A. R. Gibbs, A. D.
        Grauer, H. Groeller, J. K. Hogan, R. A. Kowalski, S. M. Larson, G. J.
        Leonard, D. Rankin, R. L. Seaman, A. Serrano, F. C. Shelly, K. W.
        Wierzchos.  1.0-m prime focus + CCD.
    J95 Great Shefford.  Observer P. Birtwhistle.  0.41-m f/6.3 Schmidt-Cassegrain
        + CCD.
    K88 GINOP-KHK, Piszkesteto.  Observer K. Sarneczky.  0.60-m Schmidt + CCD.
    L01 Visnjan Observatory, Tican.  Observer K. Korlevic.  1.0-m f/2.9 reflector
        + CCD.
    W62 Comet Hunter Observatory2, New Ringgold.  Observer J. Maikner.  0.30-m
        f/3.8 Riccardi-Honders + CCD.
    
    Orbital elements:
    2023 GS                                                  Earth MOID = 0.0088 AU
    Epoch 2023 Feb. 25.0 TT = JDT 2460000.5                 Veres                   
    M 290.09665              (2000.0)            P               Q                  
    n   0.68359264     Peri.  226.18226     +0.01219064     +0.99973530             
    a   1.2762560      Node    44.52745     -0.90924296     +0.01920280             
    e   0.3235401      Incl.    1.59442     -0.41608727     -0.01267185             
    P   1.44           H   26.09          G   0.15           U   7                  
    Residuals in seconds of arc
    230410 K88  0.3-  0.4-    230410 L01  0.4-  0.0     230411 W62  0.0   0.6+
    230410 K88  0.4-  0.0     230411 J95  0.4-  1.1-    230411 H36  0.1+  1.0+
    230410 K88  0.1+  0.1-    230411 J95  0.3+  0.5-    230411 W62  0.9-  1.0+
    230410 K88  0.4-  0.7+    230411 W62  0.8+  0.4-    230411 I52  0.2+  0.1+
    230410 K88  0.2-  0.7-    230411 J95  0.1-  0.3-    230411 I52  0.1+  0.3+
    230410 J95  0.1+  0.1+    230411 W62  0.4+  0.2-    230411 I52  0.2-  0.2-
    230410 J95  0.4-  0.1-    230411 H36  0.0   2.2+    230411 I52  0.3+  0.1-
    230410 J95  0.0   0.4-    230411 H21  0.5+  0.1+    230411 H01  0.0   0.0
    230410 K88  0.0   0.5-    230411 W62  0.4+  0.1+    230411 H01  0.1-  0.0
    230410 K88  0.0   0.4-    230411 H21  0.4+  0.1+    230411 H01  0.0   0.0
    230410 L01  0.5-  0.1+    230411 H21  0.4+  0.1+    230411 H01  0.0   0.0
    230410 L01  0.5-  0.2-    230411 H21  0.3+  0.0     230411 958  1.1-  0.2-
    230410 L01  0.4-  0.2+    230411 H21  0.2+  0.2+    230411 958  1.1-  1.1-
    230410 L01  0.4-  0.2+    230411 H36  0.9-  0.7+    230411 958  0.1-  0.3-
    
    Ephemeris:
    2023 GS                  a,e,i = 1.28, 0.32, 2                   q = 0.8633
    Date    TT    R. A. (2000) Decl.     Delta      r    Elong.  Phase     V
    2023 03 12    12 43 19.4 +03 08 37   0.2049  1.1888   160.8    16.0    23.9
    ...
    2023 03 27    12 38 38.0 +06 23 43   0.1147  1.1108   170.3     8.7    22.2
    ...
    2023 04 04    12 28 15.4 +10 27 05   0.07269 1.0696   163.2    15.6    21.4
    ...
    2023 04 10    12 07 53.9 +17 36 56   0.04344 1.0395   150.2    28.6    20.6
    2023 04 11    12 01 26.3 +19 44 51   0.03881 1.0345   146.7    32.1    20.5
    2023 04 12    11 53 03.1 +22 24 30   0.03429 1.0296   142.6    36.2    20.3
    ...
    2023 04 18    07 18 10.8 +56 17 15   0.01528 1.0008    78.0   101.2    20.7
    ...
    2023 04 26    01 43 09.5 +16 45 24   0.04155 0.9649     7.7   171.9
    ...
    2023 05 11    01 15 42.2 +05 46 38   0.1191  0.9088    30.2   146.1    29.0
    
    M. P. C. Staff               (C) Copyright 2023 MPC           M.P.E.C. 2023-G59
    


    Read MPEC 2023-G58 Read MPEC 2023-G60


    MPEC number:

    Enter an MPEC number in one of the following forms:

    • 1997-B01 (the full form)
    • J97B01 (the packed version of the full form)
    • B01 (the abbreviated form)